Location: Demmingen
(48.6757°N, 10.4375°E)
Time: 21:41:16
(UTC+00:00)

Okean 2 - Pass Details

Date: 23 May 2024
Orbit: 540 x 553 km, 82.5° (Epoch: 14 June)

Event Time Altitude Azimuth Distance (km) Brightness Sun altitude
Exits shadow 00:50:35 40° 200° (SSW) 805 3.6 -17.5°
Maximum altitude 00:51:56 79° 280° (W) 558 3.2 -17.4°
Drops below altitude 10° 00:55:55 10° 7° (N) 1,815 7.1 -17.1°
Sets 00:58:06 0° 9° (N) 2,713 8.3 -17.0°
